Location: McGriff (historical)
(32.4329°N, 83.4157°W)
Time: 00:43:14
(UTC+00:00)

Daily predictions for brighter satellites

Satellite Brightness Start Highest point End
(mag) Time Altitude Azimuth Time Altitude Azimuth Time Altitude Azimuth
MOS 1 Rocket 3.8 00:02:27 10° NE 00:06:19 30° E 00:10:05 10° SSE
Cosmos 1975 Rocket 4.1 00:03:24 10° NNE 00:06:59 25° ENE 00:10:32 10° SE
Cosmos 1674 Rocket 4.1 00:02:46 10° NNW 00:07:12 65° W 00:11:35 10° S
USA 234 3.8 00:03:23 10° ENE 00:09:22 38° SE 00:15:21 10° SSW
COSMO-SKYMED 1 4.4 00:06:19 10° N 00:10:19 37° WNW 00:14:18 10° SW
Sich 1 Rocket 4.1 00:10:56 10° SSE 00:15:03 38° E 00:19:14 10° NNE
ISS -3.0 00:11:52 10° WSW 00:15:09 54° NW 00:18:28 10° NE
H-2A R/B 2.5 00:14:36 10° SE 00:19:05 37° ENE 00:23:40 10° N
Iridium 4 Rocket 3.5 00:18:04 10° S 00:22:45 81° W 00:27:55 10° N
ARGOS 3.9 00:18:17 10° SE 00:22:57 32° ENE 00:27:37 10° N
Cosmos 158 Rocket 3.9 00:17:58 10° NNW 00:23:13 88° ENE 00:28:17 10° SSE
GPS 2-04 Rocket1 4.2 00:24:26 10° W 00:28:13 32° SSW 00:31:48 11° SE
SJ 16-02 4.4 00:25:34 10° WSW 00:28:40 19° WNW 00:31:47 10° NNW
Cosmos 1437 2.7 00:27:09 10° N 00:30:02 46° E 00:32:46 11° SSE
CZ-2C R/B 3.4 00:28:45 10° NE 00:33:42 32° E 00:38:40 10° SSE
Milstar 3 Cent rocket 3.3 00:27:28 10° SW 00:34:16 33° SSE 00:37:15 19° ESE
Okean 2 Rocket 3.5 00:30:38 10° SSE 00:34:50 40° E 00:39:02 10° NNE
SL-16 R/B 4.3 00:31:26 10° NW 00:36:10 28° WSW 00:40:54 10° SSW
Okean-O 3.9 00:34:25 10° S 00:38:37 44° W 00:42:52 10° NNW
ATLAS 2AS CENTAUR R/B 4.0 00:33:42 10° SSE 00:38:56 20° ESE 00:40:33 19° E
Cosmos 2263 Rocket 3.7 00:33:57 10° SW 00:39:04 38° WNW 00:44:15 10° N
HJ-1C 3.2 00:37:07 10° SSE 00:40:22 68° ENE 00:43:37 10° N
SJ-11-01 4.2 00:36:01 10° SSE 00:40:42 71° ENE 00:45:24 10° N
NOSS 2-2 (D) 4.5 00:40:12 10° SW 00:43:32 39° WNW 00:46:56 10° NNE
DELTA 2 R/B (1) 3.9 00:38:13 10° WNW 00:43:39 54° NNE 00:46:52 24° E
CZ-2C R/B 3.1 00:38:34 10° SSE 00:43:39 87° W 00:49:04 10° NNW
GOES 2 Rocket 3.9 00:40:02 10° SW 00:43:45 32° SSE 00:45:16 25° SE
Cosmos 1844 Rocket 3.0 00:41:02 10° S 00:46:11 41° ESE 00:51:23 10° NE
Cosmos 1300 Rocket 3.6 00:42:37 10° S 00:46:52 54° E 00:51:10 10° NNE
Cosmos 1513 Rocket 4.4 00:45:38 10° S 00:51:55 74° E 00:58:08 10° N
Ariane Rocket 3.6 00:50:37 28° ESE 00:52:09 34° ENE 00:56:41 10° N
YAOGAN 1 3.8 00:48:30 10° S 00:52:35 42° W 00:56:42 10° NNW
USA 186 3.5 00:54:52 20° NNE 00:54:52 20° NNE 00:56:13 10° NNE
Exosat Rocket 4.1 00:52:31 10° S 00:58:36 42° ESE 01:03:30 10° NE
Cosmos 1464 Rocket 3.8 00:54:10 10° S 01:00:16 83° E 01:06:26 10° N
Cosmos 2298 Rocket 3.9 00:56:09 10° S 01:01:27 75° ESE 01:06:47 10° NNE
Cosmos 1943 3.1 00:56:29 10° NNW 01:02:10 89° WSW 01:06:43 16° SSE
Meteor 1-12 Rocket 4.3 00:56:22 10° S 01:02:21 89° E 01:08:14 10° N
CZ-4 R/B 4.2 01:07:15 10° SW 01:10:22 20° W 01:13:31 10° NW
Cosmos 2151 Rocket 3.5 01:11:37 10° S 01:16:03 88° E 01:20:31 10° N
Cosmos 1867 3.7 01:15:35 10° NNW 01:20:56 53° ENE 01:21:22 52° ENE
USA 102 4.4 01:22:51 58° W 01:22:51 58° W 01:28:57 10° NNW
CZ-2C R/B 1.7 01:19:14 10° W 01:22:04 45° NW 01:22:04 45° NW
Cosmos 1025 Rocket 2.9 01:19:41 10° N 01:23:50 74° NE 01:23:50 74° NE
DMSP B5D2-2 4.2 01:28:48 10° N 01:34:05 75° WNW 01:39:20 10° SSW
BREEZE-M DEB (TANK) 4.2 01:36:56 10° NNW 01:41:05 49° NE 01:42:23 45° ENE
Cosmos 1125 Rocket 3.6 01:36:20 10° SSW 01:41:36 76° WNW 01:46:56 10° NNE
Resurs 01 Rocket 4.1 01:49:34 13° N 01:49:34 13° N 01:50:02 10° N
Cosmos 1707 4.4 01:42:49 10° NNW 01:46:13 30° W 01:46:33 30° WSW
USA 234 4.0 01:46:07 10° NNE 01:52:22 50° NW 01:58:37 10° WSW
H-2A R/B 4.4 01:55:13 10° SW 01:58:36 18° W 02:02:01 10° NW
Nadezhda 4 Rocket 4.2 01:56:01 10° NNW 02:02:02 63° W 02:03:08 54° SW
ATLAS 2AS CENTAUR R/B 3.1 02:21:18 10° SW 02:33:17 32° NNE 02:37:08 10° NNE
CENTAUR R/B 3.6 02:40:54 10° NNW 02:47:17 56° N 02:47:17 56° N
IDEFIX/ARIANE 42P 4.1 08:34:13 10° NNE 08:36:52 31° NNE 08:36:52 31° NNE
MSX 4.3 08:36:43 10° NNE 08:41:48 58° ENE 08:41:48 58° ENE
ARIANE 5 R/B 4.5 08:41:36 10° N 08:43:09 20° N 08:43:09 20° N
H-2A R/B 3.6 08:57:17 10° SE 09:01:10 34° ENE 09:05:09 10° N
SJ 16-02 4.3 08:58:48 10° NNE 09:01:27 15° ENE 09:04:05 10° ESE
Cosmos 1812 4.0 09:12:51 38° NE 09:12:51 38° NE 09:15:36 10° NNE
BREEZE-M DEB (TANK) 3.8 09:13:55 48° WSW 09:16:26 71° NW 09:20:39 10° NE
ERBS 4.5 09:21:44 22° NNE 09:21:44 22° NNE 09:23:06 10° NNE
SL-4 R/B 2.7 09:19:51 54° SE 09:19:56 54° SE 09:24:31 10° NE
CZ-2C R/B 2.9 09:15:07 10° NNE 09:20:14 62° ESE 09:23:04 26° S
Cosmos 1980 Rocket 3.1 09:22:31 34° NW 09:22:31 34° NW 09:26:37 10° N
Cosmos 1500 4.2 09:20:43 10° N 09:24:25 46° E 09:28:04 10° SSE
Cosmos 1339 Rocket 4.4 09:22:54 42° SSW 09:25:09 75° W 09:31:25 10° N
PAYLOAD A 3.7 09:21:12 10° NNE 09:25:53 83° E 09:26:52 57° S
Cosmos 468 Rocket 4.3 09:24:08 30° S 09:26:43 65° ESE 09:31:57 10° NNE
Cosmos 2322 Rocket 3.0 09:22:33 15° S 09:26:56 48° ESE 09:32:23 10° NNE
Landsat 5 3.7 09:22:33 10° SSE 09:27:03 75° ENE 09:31:33 10° N
Meteor 1-10 Rocket 4.3 09:25:24 23° S 09:29:07 81° E 09:34:57 10° N
SL-16 R/B 2.3 09:31:24 26° S 09:34:43 73° ESE 09:40:23 10° NNE
Cosmos 2263 Rocket 3.4 09:31:39 10° N 09:37:01 42° ENE 09:42:22 10° SE
Chandra Rocket (1) 4.1 09:31:38 28° W 09:39:54 57° SSW 09:45:26 10° SE
Meteor 1-14 Rocket 4.2 09:37:15 10° NNW 09:42:40 55° W 09:48:02 10° S
NOSS 3-3 (A) 4.3 09:45:01 36° W 09:46:06 40° NW 09:51:55 10° NNE
NOSS 3-3 (C) 4.2 09:45:11 36° W 09:46:15 40° NW 09:51:59 10° NNE
CSL-04 DEB 4.4 09:44:09 10° S 09:48:19 61° WSW 09:52:37 10° NNW
Meteor 2-6 Rocket 4.4 09:48:56 33° SW 09:51:01 49° WNW 09:56:34 10° N
deb Chang Zheng 4 3.9 09:47:13 10° NNE 09:51:28 65° ESE 09:55:41 10° S
Cosmos 1238 Rocket 4.1 09:45:41 10° NNW 09:51:51 46° W 09:57:23 10° SSW
OE (NEXTSAT) 4.3 09:51:29 58° NW 09:52:05 83° NE 09:55:32 10° SE
Cosmos 1707 Rocket 3.5 09:49:48 10° S 09:54:06 85° E 09:58:26 10° N
Cosmos 921 Rocket 4.0 09:55:09 28° NW 09:55:09 28° NW 09:58:06 10° N
IRIDIUM 104 4.2 09:52:38 10° N 09:57:50 71° W 10:03:00 10° S
Meteor 1-5 Rocket 4.0 09:54:45 10° NNW 10:00:04 75° W 10:05:30 10° S
Cosmos 2228 Rocket 4.4 10:01:20 23° WNW 10:01:20 23° WNW 10:03:57 10° NNW
IRIDIUM 114 4.3 10:01:51 10° N 10:06:57 56° W 10:12:02 10° SSW
Meteor 1-4 Rocket 3.2 10:09:30 31° WNW 10:09:30 31° WNW 10:12:30 10° NNW
USA 32 4.0 10:06:09 10° N 10:11:25 87° W 10:16:39 10° S
Skynet4D Del rocket 4.1 10:09:50 23° WSW 10:13:06 50° S 10:19:08 10° ESE
ADEOS 3.5 10:09:35 10° N 10:14:46 70° WNW 10:19:56 10° SSW
Cosmos 1536 3.1 10:14:00 10° N 10:18:04 70° E 10:22:06 10° SSE
ADEOS Rocket 3.2 10:10:59 10° S 10:18:10 76° WSW 10:24:39 10° NNW
Cosmos 1733 Rocket 3.9 10:15:39 10° N 10:19:54 52° E 10:24:06 10° SSE
USA 234 3.2 10:13:32 10° SSE 10:19:59 66° SW 10:26:30 10° NW
DELTA 4 R/B 3.9 10:09:18 17° W 10:20:16 45° SSW 10:24:39 10° SE
Cosmos 1484 Rocket 2.7 10:17:23 10° N 10:21:22 71° WNW 10:25:20 10° SSW
Cosmos 1869 Rocket 4.1 10:21:02 10° NNW 10:24:55 33° W 10:28:47 10° SSW
ALOS 2.2 10:20:28 10° N 10:25:08 73° WNW 10:29:45 10° SSW
Meteor 1-11 Rocket 3.7 10:21:25 10° NNW 10:27:07 68° W 10:32:40 10° S
Cosmos 1814 Rocket 4.1 10:22:43 10° SSW 10:27:52 84° ESE 10:33:07 10° NNE
Cosmos 1862 Rocket 3.5 10:23:32 10° S 10:27:57 84° W 10:32:20 10° N
ERS-2 2.9 10:25:00 10° SSW 10:28:13 29° W 10:31:29 10° NW
Cosmos 1937 Rocket 4.1 10:23:33 10° N 10:28:37 59° ENE 10:33:40 10° SSE
Cosmos 1437 Rocket 3.6 10:25:55 10° S 10:29:34 52° E 10:33:15 10° NNE
Meteor 1-31 Rocket 2.7 10:28:25 10° N 10:32:12 62° WNW 10:35:59 10° SSW
FALCON 9 DEB 4.5 10:31:12 17° W 10:32:58 25° NW 10:35:52 10° NNE
Cosmos 841 Rocket 3.5 10:27:54 10° SSW 10:33:03 66° WNW 10:38:16 10° N
Meteor 1-27 Rocket 4.2 10:27:43 10° SSW 10:33:20 44° WNW 10:38:59 10° N
H-2A R/B 3.6 10:34:35 10° SW 10:37:12 16° W 10:39:52 10° WNW
SJ 16-02 1.9 10:36:07 10° NW 10:40:06 35° W 10:44:05 10° SSW
Meteor PRIRODA 3.8 10:38:01 10° NNE 10:41:41 75° E 10:45:17 10° S
Cosmos 1570 Rocket 4.2 10:40:37 10° SSW 10:45:45 51° WNW 10:50:56 10° N
Cosmos 2016 Rocket 4.2 10:40:52 10° N 10:46:59 76° E 10:53:04 10° S
Cosmos 2360 Rocket 2.4 10:49:46 10° SW 10:55:16 52° WNW 11:00:48 10° N
Meteor 2-20 Rocket 4.5 10:49:56 10° S 10:56:05 77° W 11:02:14 10° N
CZ-4B R/B 2.6 10:54:28 10° SSW 10:56:49 20° W 10:59:12 10° NW
Cosmos 1515 3.9 10:53:03 10° S 10:56:50 79° E 11:00:38 10° N
CZ-2C R/B 4.3 10:55:32 10° NW 10:57:52 13° WNW 11:00:12 10° W
SJ-12 4.1 10:53:58 10° N 10:57:59 52° WNW 11:01:59 10° SSW
SL-4 R/B 3.7 10:56:09 10° W 10:59:55 24° NNW 11:03:50 10° NNE
COSMO-SKYMED 1 2.6 10:56:00 10° SSE 11:00:20 88° WSW 11:04:41 10° NNW
